User: anonymous   Login
Location: Tauranga
(37.6860°S, 176.1670°E)
Time: 23:41:38
(UTC+13:00)
Language:

Cosmos 1242 Rocket - Orbit

View from above orbital plane
View from above orbital plane
View from above satellite
View from above satellite

Ground track
Ground track

The orbit data is extracted from the following two-line orbital elements,

1 12155U 81008B   19296.16881115  .00000787  00000-0  23972-4 0  9998
2 12155  81.1596 124.1541 0027573 287.6746  72.1481 15.32357271123799
Epoch (UTC): 23 October 2019 04:03:05
Eccentricity: 0.0027573
inclination: 81.1596°
perigee height: 450 km
apogee height: 487 km
right ascension of ascending node: 124.1541°
argument of perigee: 287.6746°
revolutions per day: 15.32357271
mean anomaly at epoch: 72.1481°
orbit number at epoch: 12379

The dashed part of the orbit path shows where the satellite is in the earth's shadow,  

DLR